TimeEDT,TemperatureF,Dew PointF,Humidity,Sea Level PressureIn,VisibilityMPH,Wind Direction,Wind SpeedMPH,Gust SpeedMPH,PrecipitationIn,Events,Conditions,WindDirDegrees,DateUTC
12:00 AM,50.0,41.0,71,30.16,9.0,NNW,8.1,-,N/A,,Clear,330,2013-09-24 04:00:00
1:00 AM,50.0,41.0,71,30.15,9.0,NNW,8.1,-,N/A,,Clear,330,2013-09-24 05:00:00
2:00 AM,50,42,67,30.14,10,NNW,8.1,,,,,330,2013-09-24 06:00:00
2:00 AM,50.0,42.8,76,30.14,9.0,NNW,8.1,-,N/A,,Clear,330,2013-09-24 06:00:00
3:00 AM,50.0,42.8,76,30.14,9.0,NNW,5.8,-,N/A,,Clear,330,2013-09-24 07:00:00
4:00 AM,50.0,42.8,76,30.14,9.0,NNW,5.8,-,N/A,,Clear,330,2013-09-24 08:00:00
5:00 AM,46.4,41.0,81,30.14,9.0,Variable,2.3,-,N/A,,Clear,0,2013-09-24 09:00:00
6:00 AM,46.4,41.0,81,30.15,9.0,Variable,2.3,-,N/A,,Clear,0,2013-09-24 10:00:00
7:00 AM,46.4,41.0,81,30.17,9.0,Variable,2.3,-,N/A,,Clear,0,2013-09-24 11:00:00
8:00 AM,48,41,70,30.18,10,NW,3.5,,,,,320,2013-09-24 12:00:00
8:00 AM,48.2,41.0,76,30.18,9.0,NW,3.5,-,N/A,,Clear,310,2013-09-24 12:00:00
9:00 AM,53.6,39.2,58,30.17,9.0,ENE,8.1,-,N/A,,Clear,60,2013-09-24 13:00:00
10:00 AM,55.4,41.0,58,30.17,9.0,East,4.6,-,N/A,,Clear,90,2013-09-24 14:00:00
11:00 AM,57.2,41.0,55,30.15,9.0,East,4.6,-,N/A,,Clear,100,2013-09-24 15:00:00
12:00 PM,57.2,44.6,63,30.14,9.0,South,5.8,-,N/A,,Clear,180,2013-09-24 16:00:00
1:00 PM,59.0,44.6,59,30.12,9.0,South,8.1,-,N/A,,Clear,190,2013-09-24 17:00:00
2:00 PM,59,46,52,30.09,10,South,8.1,,,,,190,2013-09-24 18:00:00
2:00 PM,59.0,46.4,63,30.09,9.0,South,6.9,-,N/A,,Clear,190,2013-09-24 18:00:00
3:00 PM,59.0,46.4,63,30.07,9.0,South,6.9,-,N/A,,Clear,180,2013-09-24 19:00:00
4:00 PM,59.0,48.2,67,30.05,9.0,SSW,8.1,-,N/A,,Clear,200,2013-09-24 20:00:00
5:00 PM,60.8,48.2,63,30.04,9.0,SSW,5.8,-,N/A,,Clear,210,2013-09-24 21:00:00
6:00 PM,59.0,48.2,67,30.03,9.0,SW,6.9,-,N/A,,Clear,220,2013-09-24 22:00:00
7:00 PM,57.2,48.2,72,30.04,9.0,WSW,4.6,-,N/A,,Clear,250,2013-09-24 23:00:00
8:00 PM,58,49,63,30.04,10,West,4.6,,,,,280,2013-09-25 00:00:00
8:00 PM,57.2,48.2,72,30.04,9.0,West,4.6,-,N/A,,Clear,270,2013-09-25 00:00:00
9:00 PM,59.0,48.2,67,30.03,9.0,NNW,4.6,-,N/A,,Clear,330,2013-09-25 01:00:00
10:00 PM,51.8,48.2,88,30.03,9.0,Calm,Calm,-,N/A,,Clear,0,2013-09-25 02:00:00
11:00 PM,55.4,46.4,72,30.03,9.0,NW,5.8,-,N/A,,Clear,310,2013-09-25 03:00:00